sat.trackr.live / text

‹ back to catalog

STARLINK-1553

NORAD 46348 · 2020-062Z

PAYLOAD ACTIVE UNKNOWN

§ Identity

Operator
Country
US
Launch date
2020-09-03
Launch site
AFETR
Launch vehicle
Mass (kg)
RCS (m²)

Purposes: comms

External: N2YO · Heavens-Above · Gunter

§ Orbital elements

Epoch: 2026-05-25T03:36:41.935968Z

Period
93.47 min
Inclination
53.0368°
Eccentricity
0.0002849
Mean motion
15.40519884 rev/d
Perigee alt
442.6 km
Apogee alt
446.5 km
Semi-major
6,822.7 km
B*
6.7533e-4
RAAN
306.1703°
Arg perigee
60.6075°
Mean anomaly
299.5213°
Rev number
31,706

§ Raw data

STARLINK-15531 46348U 20062Z   26145.15048537  .00027527  00000+0  67533-3 0  99952 46348  53.0368 306.1703 0002849  60.6075 299.5213 15.40519884317062

JSON: /api/v1/satellites/46348 · /tle

For live sub-satellite position, see the globe view (requires WebGL).

§ Visibility from observer

Set your observer location to see the next 7 days of passes ≥ 10°. The values pass through the URL so the page stays shareable.

No JS? Fill the form by hand. The geolocation button needs JavaScript.